This is the latest recevied weather packets stored in our database for station/object N8HON. If no packets are shown the sender has not sent any weather packets the latest 10 day(s).
| Time | Temp. | Humidity | Pressure | Rain* | Wind** | Luminosity | Snow |
|---|---|---|---|---|---|---|---|
| 1778108990 | 17.78° C | 77% | 1009 hPa | 0 mm | - | 51 W/m² | - |
| 1778108686 | 17.78° C | 76% | 1009.1 hPa | 0 mm | - | 76 W/m² | - |
| 1778108383 | 18.33° C | 76% | 1008.8 hPa | 0 mm | - | 47 W/m² | - |
| 1778108081 | 18.89° C | 75% | 1008.8 hPa | 0 mm | - | 93 W/m² | - |
| 1778107777 | 18.89° C | 74% | 1008.9 hPa | 0 mm | - | 73 W/m² | - |
| 1778107474 | 19.44° C | 75% | 1008.4 hPa | 0 mm | - | 108 W/m² | - |
| 1778107171 | 19.44° C | 74% | 1008.3 hPa | 0 mm | - | 124 W/m² | - |
| 1778106866 | 18.89° C | 75% | 1008.2 hPa | 0 mm | - | 152 W/m² | - |
| 1778106564 | 19.44° C | 76% | 1008.2 hPa | 0 mm | - | 44 W/m² | - |
| 1778106260 | 19.44° C | 74% | 1008.2 hPa | 0 mm | - | 66 W/m² | - |
| 1778105957 | 19.44° C | 74% | 1008.2 hPa | 0 mm | - | 67 W/m² | - |
| 1778105654 | 19.44° C | 75% | 1008.2 hPa | 0 mm | - | 67 W/m² | - |
| 1778105352 | 20° C | 74% | 1008.1 hPa | 0 mm | - | 66 W/m² | - |
| 1778105047 | 20° C | 74% | 1008 hPa | 0 mm | - | 72 W/m² | - |
| 1778104744 | 20° C | 73% | 1007.8 hPa | 0 mm | - | 97 W/m² | - |
| 1778104440 | 20° C | 72% | 1008 hPa | 0 mm | - | 164 W/m² | - |
| 1778104136 | 20° C | 73% | 1008 hPa | 0 mm | - | 160 W/m² | - |
| 1778103833 | 20° C | 74% | 1007.8 hPa | 0 mm | - | 186 W/m² | - |
| 1778103531 | 20° C | 73% | 1007.9 hPa | 0 mm | - | 133 W/m² | - |
| 1778103228 | 20° C | 73% | 1007.9 hPa | 0 mm | - | 177 W/m² | - |
| 1778102925 | 20° C | 74% | 1007.9 hPa | 0 mm | - | 188 W/m² | - |
| 1778102621 | 20° C | 74% | 1007.7 hPa | 0 mm | - | 163 W/m² | - |
| 1778102316 | 20° C | 75% | 1007.7 hPa | 0 mm | - | 124 W/m² | - |
| 1778102012 | 20° C | 76% | 1007.6 hPa | 0 mm | - | 154 W/m² | - |
| 1778101710 | 20° C | 75% | 1007.7 hPa | 0 mm | - | 199 W/m² | - |
* Rain latest hour (hover to see other rain measurements)
** Current wind speed in m/s (hover to see current wind gust speed)